Starlink 4385

operational
NORAD ID: 53198 Int'l Des: 2022-084 Owner: SPXS Country: US Constellation: starlink
LEOCIRCULARRETROGRADESSO

About Starlink 4385

Description loading...

Live Position

Loading 3D Globe...

Upcoming Passes

Altitude History

Altitude vs Time

uPlot chart will show altitude changes over time

Two-Line Element Set

1 53198U 22084K 26066.17235911 .00000483 00000-0 42120-4 0 9999
2 53198 97.6021 127.7492 0002892 63.3735 296.7785 15.01263309199590
Epoch: Mar 7, 2026 • Age: 15 hours

Current Status

Altitude 576.5 km
Velocity 7.57 km/s
Sub-Earth Point -34.97°S, 100.51°E
Launch Date Jul 22, 2022
Age 3.6 years
Type internet

Technical Details

Classification Payload
Mass 297.00 kg
Dry Mass 275.00 kg
Total Mass 297.00 kg
Length 0.20 m
Diameter 2.80 m
Span 9.00 m
Shape Box + pan
Manufacturer SPXS
Bus Type Starlink
Phase Status In Orbit
Owner/State SPXS/US

Large Constellations

Loading constellations...